[[{"header":{"parameterUnit":"m.s-1","parameterCategory":1,"la1":30.2991,"la2":30.254,"lo1":-89.0895,"lo2":-89.0444,"dy":0.0017,"dx":0.0017,"nx":28,"ny":28,"refTime":"2026-02-03T03:00:00:Z","depth":0,"parameterNumber":2,"parameterNumberName":"U-component_of_WINDS"},"data":[0,0,0,0,0,0,0,0,0,0,0,0,0,0,0,0,0,0,0,0,0,0,0,0,0,0,0,0,0,0,0,0,0,0,0,0,0,0,0,0,0,0,0,0,0,0,0,0,0,0,0,0,0,0,0,0,0,0,2.5905,2.5905,0,2.5919,2.5919,2.5919,2.5896,2.5895,2.5895,2.5894,2.5909,2.591,2.5911,0,0,0,0,0,0,0,0,0,0,0,0,0,2.5861,2.5862,2.5905,2.5905,2.5905,2.5919,2.5919,2.5919,2.5896,2.5895,2.5894,2.5893,2.5908,2.591,2.5911,0,0,0,0,0,0,0,0,0,0,0,0,0,2.5878,2.5862,2.5905,2.5895,2.5895,2.5919,2.5919,2.5919,2.5896,2.5895,2.5894,2.5893,2.5908,2.591,2.5911,2.5945,0,0,2.5916,2.5917,0,0,0,0,0,0,0,0,2.5877,2.588,2.5897,2.5896,2.5895,2.5905,2.5909,2.5928,2.5897,2.5896,2.5894,2.5892,2.5908,2.591,2.5915,2.5946,2.5947,2.5917,2.5918,2.5918,2.5919,0,0,0,0,0,0,0,2.5876,2.5879,2.591,2.5897,2.5896,2.5891,2.5892,2.5913,2.5909,2.5896,2.5894,2.5896,2.5908,2.5914,2.5915,2.5947,2.5917,2.5918,2.5919,2.592,2.601,2.6011,0,0,0,0,0,0,2.5876,2.5878,2.591,2.5911,2.5883,2.5893,2.5894,2.5903,2.5908,2.5908,2.5897,2.5895,2.5911,2.5913,2.5916,2.5958,2.5918,2.592,2.5921,2.6008,2.601,2.6011,0,0,0,0,0,0,2.5875,2.5879,2.5909,2.5894,2.5898,2.5895,2.5905,2.5904,2.5909,2.5909,2.5909,2.5904,2.591,2.5913,2.5939,2.5958,2.5921,2.5922,2.6007,2.6009,2.6011,2.6041,0,0,0,0,0,0,2.5874,2.5879,2.5891,2.5895,2.5899,2.5932,2.5906,2.5905,2.5912,2.591,2.5915,2.5915,2.591,2.5936,2.5941,2.5959,2.5924,2.6005,2.6008,2.601,2.6038,2.6044,2.6048,0,0,0,0,0,2.5872,2.5898,2.5891,2.5895,2.5914,2.5933,2.5935,2.5928,2.5914,2.5927,2.5927,2.5915,2.5955,2.5939,2.5944,2.5963,2.6004,2.6007,2.601,2.6036,2.6042,2.6048,0,0,0,0,0,0,2.5896,2.5898,2.5891,2.5919,2.5926,2.5929,2.5944,2.5935,2.5946,2.5943,2.5935,2.5936,2.5964,2.5966,2.5948,2.5998,2.5977,2.5981,2.5995,2.6002,2.6007,2.6006,2.5925,0,0,0,0,0,2.5905,2.592,2.5921,2.5946,2.595,2.5947,2.5955,2.5949,2.5956,2.5959,2.5961,2.5968,2.5983,2.5992,2.6006,2.6039,2.604,2.6055,2.606,2.6064,2.6068,2.6087,2.6094,2.6021,2.6021,2.6021,0,0,2.5923,2.5926,2.5935,2.5951,2.5955,2.5972,2.5949,2.5967,2.5979,2.5961,2.5986,2.5988,2.5996,2.6026,2.6039,2.6028,2.6088,2.6068,2.6071,2.6073,2.6091,2.6098,2.6104,2.6023,2.6023,2.6023,0,0,2.5964,2.5967,2.5989,2.5994,2.6002,2.6,2.6006,2.6011,2.6011,2.6036,2.6024,2.6039,2.6063,2.607,2.6077,2.6124,2.6114,2.6129,2.6155,2.6175,2.618,2.6185,2.6203,2.621,2.6132,2.6132,2.6132,0,2.5985,2.6008,2.6001,2.602,2.6028,2.6014,2.6037,2.6042,2.6054,2.606,2.6049,2.6081,2.6085,2.6118,2.6129,2.6135,2.6142,2.6128,2.618,2.6185,2.619,2.6207,2.6213,2.6134,2.6134,2.6134,2.6134,0,2.6035,2.6051,2.6068,2.6081,2.609,2.6111,2.6109,2.612,2.6114,2.6114,2.6141,2.6146,2.6161,2.6168,2.6162,2.62,2.6194,2.6181,2.616,2.6199,2.6214,2.6221,2.6137,2.6136,2.6136,2.6135,0,0,2.6089,2.6099,2.6105,2.6112,2.6121,2.6134,2.6155,2.617,2.6181,2.619,2.6208,2.6231,2.6221,2.6228,2.6224,2.6241,2.6279,2.6226,2.6226,2.6237,2.6323,2.6333,2.634,2.6273,2.6274,2.6275,2.6323,0,2.6131,2.6167,2.6162,2.6198,2.6214,2.6202,2.6221,2.6229,2.623,2.6245,2.6247,2.6264,2.6248,2.6253,2.6269,2.6271,2.6297,2.6268,2.6291,2.6292,2.6289,2.6348,2.6358,2.6403,2.6329,2.633,2.6331,0,2.6183,2.6195,2.6232,2.6241,2.6248,2.6264,2.6279,2.6293,2.6303,2.6303,2.6313,2.6306,2.6329,2.6308,2.6341,2.6321,2.6331,2.6334,2.6336,2.6337,2.6314,2.6353,2.6417,2.6424,2.634,2.634,2.6339,0,2.6221,2.6246,2.6272,2.6278,2.6288,2.6301,2.6306,2.6314,2.6324,2.6338,2.6344,2.636,2.6369,2.6382,2.638,2.6365,2.6414,2.6392,2.6415,2.6416,2.6426,2.6425,2.6493,2.6432,2.6432,2.6432,2.6431,0,2.6268,2.6291,2.629,2.6305,2.6332,2.6328,2.6354,2.6358,2.6366,2.6384,2.6374,2.6391,2.6388,2.6405,2.6404,2.6432,2.6436,2.6437,2.6437,2.6438,2.6438,2.6444,2.6441,2.6433,2.6433,2.6433,2.6432,0,2.6313,2.6313,2.6341,2.6349,2.6352,2.6371,2.6378,2.6394,2.6396,2.6418,2.6423,2.6426,2.6446,2.6445,2.6468,2.6467,2.6502,2.6498,2.6499,2.6498,2.6522,2.652,2.6596,2.6607,2.6538,2.6539,2.6539,0,2.6343,2.6361,2.6372,2.6383,2.6389,2.6406,2.6417,2.6414,2.6426,2.644,2.6455,2.6474,2.6489,2.6522,2.6526,2.6544,2.6541,2.6566,2.6543,2.6545,2.6542,2.6541,2.6544,2.6571,2.6572,2.6572,2.6573,0,2.6397,2.6397,2.6412,2.6428,2.6442,2.6454,2.6466,2.6476,2.6475,2.6489,2.6509,2.6521,2.6545,2.6565,2.6583,2.6589,2.6581,2.658,2.6587,2.6588,2.6589,2.659,2.6512,2.6578,2.6578,2.6577,2.6577,2.6577,2.6436,2.6452,2.6463,2.6481,2.649,2.6502,2.6518,2.6522,2.6539,2.6558,2.6556,2.6579,2.6591,2.6614,2.6622,2.6641,2.6632,2.6641,2.6644,2.6646,2.6649,2.6586,2.6644,2.6644,2.6644,2.6644,2.6644,0,2.649,2.6497,2.6514,2.6531,2.6546,2.6538,2.6551,2.6564,2.6585,2.6597,2.6612,2.6637,2.6657,2.6664,2.6684,2.6698,2.6695,2.6703,2.6702,2.6704,2.6656,2.6648,2.6705,2.6705,2.6705,2.6705,2.6705,2.6705,2.652,2.6547,2.6549,2.6581,2.6588,2.6611,2.6619,2.6631,2.664,2.6668,2.6685,2.6689,2.67,2.672,2.6739,2.6741,2.6749,2.6758,2.6759,2.6713,2.6707,2.6701,2.6694,2.676,2.676,2.6806,2.6806,2.6806]},{"header":{"parameterUnit":"m.s-1","parameterCategory":1,"la1":30.2991,"la2":30.254,"lo1":-89.0895,"lo2":-89.0444,"dy":0.0017,"dx":0.0017,"nx":28,"ny":28,"refTime":"2026-02-03T03:00:00:Z","depth":0,"parameterNumber":3,"parameterNumberName":"V-component_of_WINDS"},"data":[0,0,0,0,0,0,0,0,0,0,0,0,0,0,0,0,0,0,0,0,0,0,0,0,0,0,0,0,0,0,0,0,0,0,0,0,0,0,0,0,0,0,0,0,0,0,0,0,0,0,0,0,0,0,0,0,0,0,-8.2175,-8.2177,0,-8.2335,-8.2337,-8.2339,-8.2324,-8.2322,-8.2319,-8.2317,-8.2474,-8.248,-8.2486,0,0,0,0,0,0,0,0,0,0,0,0,0,-8.1851,-8.1857,-8.2175,-8.2177,-8.2179,-8.2335,-8.2337,-8.2339,-8.2325,-8.2322,-8.2319,-8.2316,-8.2471,-8.2479,-8.2487,0,0,0,0,0,0,0,0,0,0,0,0,0,-8.1999,-8.1859,-8.2174,-8.219,-8.2194,-8.2335,-8.2337,-8.234,-8.2325,-8.2322,-8.2318,-8.2314,-8.2469,-8.2478,-8.2488,-8.2621,0,0,-8.2517,-8.2522,0,0,0,0,0,0,0,0,-8.1991,-8.2011,-8.2186,-8.219,-8.2193,-8.2306,-8.2281,-8.2434,-8.2326,-8.2275,-8.2317,-8.2313,-8.242,-8.2434,-8.2472,-8.2628,-8.2635,-8.2518,-8.2524,-8.2528,-8.2531,0,0,0,0,0,0,0,-8.1981,-8.2004,-8.2238,-8.2189,-8.2193,-8.2188,-8.2205,-8.231,-8.2366,-8.2279,-8.2279,-8.2298,-8.2421,-8.2462,-8.2475,-8.2637,-8.2518,-8.2527,-8.2533,-8.2536,-8.2915,-8.2919,0,0,0,0,0,0,-8.1967,-8.1996,-8.2233,-8.2243,-8.2081,-8.2197,-8.2216,-8.2274,-8.2365,-8.2375,-8.2301,-8.2297,-8.2448,-8.2464,-8.2481,-8.2645,-8.2528,-8.2537,-8.2543,-8.291,-8.2915,-8.292,0,0,0,0,0,0,-8.196,-8.1989,-8.2227,-8.2119,-8.2149,-8.2207,-8.2271,-8.2279,-8.232,-8.2382,-8.2391,-8.2333,-8.2445,-8.2467,-8.2588,-8.265,-8.2542,-8.2551,-8.2905,-8.2912,-8.2918,-8.2972,0,0,0,0,0,0,-8.1951,-8.1986,-8.2038,-8.2121,-8.2155,-8.2332,-8.2275,-8.2284,-8.2337,-8.2333,-8.2414,-8.2424,-8.2444,-8.2573,-8.2597,-8.2661,-8.2558,-8.29,-8.2908,-8.2916,-8.2965,-8.298,-8.2992,0,0,0,0,0,-8.194,-8.2045,-8.2041,-8.207,-8.2222,-8.2336,-8.2355,-8.2379,-8.2342,-8.2395,-8.2435,-8.2421,-8.2639,-8.2586,-8.2613,-8.268,-8.2896,-8.2906,-8.2915,-8.2959,-8.2977,-8.2992,0,0,0,0,0,0,-8.1964,-8.2056,-8.2052,-8.2188,-8.2255,-8.2333,-8.24,-8.2397,-8.2473,-8.2466,-8.249,-8.2508,-8.263,-8.2667,-8.2606,-8.2816,-8.2763,-8.2778,-8.2787,-8.2804,-8.2817,-8.2805,-8.2566,0,0,0,0,0,-8.1986,-8.2074,-8.2148,-8.226,-8.2294,-8.2342,-8.2392,-8.2405,-8.2474,-8.2501,-8.255,-8.2616,-8.27,-8.2754,-8.2834,-8.2971,-8.2989,-8.3031,-8.3044,-8.3055,-8.3068,-8.3145,-8.3165,-8.2951,-8.2951,-8.2951,0,0,-8.2031,-8.2092,-8.2144,-8.2267,-8.232,-8.2409,-8.2365,-8.2459,-8.2525,-8.2515,-8.2633,-8.2672,-8.2746,-8.2877,-8.2936,-8.2911,-8.3131,-8.3067,-8.3076,-8.3082,-8.3157,-8.3177,-8.3195,-8.2958,-8.2957,-8.2956,0,0,-8.2158,-8.2213,-8.2313,-8.2369,-8.2452,-8.2484,-8.2508,-8.2589,-8.2615,-8.2734,-8.2729,-8.2807,-8.295,-8.3005,-8.3051,-8.3204,-8.3194,-8.3229,-8.3299,-8.3374,-8.3391,-8.3406,-8.3461,-8.3481,-8.3242,-8.3242,-8.3242,0,-8.2202,-8.2337,-8.2365,-8.2462,-8.2516,-8.2515,-8.2617,-8.2669,-8.2773,-8.281,-8.2781,-8.2964,-8.3013,-8.3157,-8.3195,-8.3233,-8.3261,-8.3219,-8.3387,-8.3402,-8.3416,-8.3469,-8.349,-8.3246,-8.3245,-8.3245,-8.3244,0,-8.2388,-8.2483,-8.2554,-8.2658,-8.2721,-8.2819,-8.2861,-8.2921,-8.293,-8.2964,-8.3087,-8.3148,-8.3242,-8.3277,-8.3284,-8.3423,-8.3405,-8.3382,-8.3329,-8.344,-8.349,-8.3511,-8.3251,-8.325,-8.3248,-8.3248,0,0,-8.2532,-8.2654,-8.268,-8.2729,-8.2822,-8.2895,-8.2994,-8.3089,-8.3141,-8.3213,-8.3297,-8.342,-8.3401,-8.3453,-8.3467,-8.3533,-8.3652,-8.3502,-8.3504,-8.3528,-8.381,-8.3827,-8.385,-8.3647,-8.3651,-8.3654,-8.3804,0,-8.2669,-8.2848,-8.2877,-8.3034,-8.3122,-8.3124,-8.3211,-8.3277,-8.3313,-8.3391,-8.343,-8.3518,-8.3484,-8.3517,-8.3582,-8.3624,-8.3709,-8.3614,-8.3724,-8.3728,-8.3706,-8.3876,-8.3894,-8.4032,-8.3824,-8.3827,-8.3829,0,-8.2851,-8.2933,-8.31,-8.3185,-8.3223,-8.33,-8.3392,-8.3467,-8.3543,-8.3564,-8.3626,-8.3634,-8.3736,-8.3681,-8.3822,-8.3757,-8.3804,-8.3832,-8.3838,-8.3849,-8.3785,-8.3892,-8.4076,-8.4097,-8.386,-8.3858,-8.3856,0,-8.2941,-8.3092,-8.3212,-8.3254,-8.3355,-8.3411,-8.3455,-8.3527,-8.3584,-8.3663,-8.37,-8.3789,-8.3838,-8.3906,-8.3937,-8.3894,-8.4078,-8.4024,-8.4098,-8.4097,-8.4135,-8.4132,-8.433,-8.4166,-8.4166,-8.4165,-8.4165,0,-8.309,-8.3192,-8.3254,-8.3328,-8.3443,-8.3476,-8.3588,-8.363,-8.3696,-8.3777,-8.3783,-8.3859,-8.3896,-8.3977,-8.4002,-8.4117,-8.4138,-8.4158,-8.4163,-8.4157,-8.4155,-8.4188,-8.4179,-8.4171,-8.417,-8.4169,-8.4168,0,-8.3208,-8.3254,-8.3386,-8.3473,-8.3498,-8.3578,-8.3652,-8.3724,-8.3761,-8.3864,-8.389,-8.3947,-8.4043,-8.4082,-8.4199,-8.4216,-8.4348,-8.4345,-8.4323,-8.4325,-8.4397,-8.439,-8.4623,-8.4655,-8.447,-8.4471,-8.4473,0,-8.33,-8.338,-8.3477,-8.3534,-8.3582,-8.3672,-8.3732,-8.3768,-8.3829,-8.3923,-8.3983,-8.4081,-8.416,-8.4314,-8.4365,-8.4455,-8.4455,-8.453,-8.4468,-8.4461,-8.4457,-8.4452,-8.446,-8.4541,-8.4543,-8.4545,-8.4546,0,-8.3459,-8.348,-8.3566,-8.3662,-8.3734,-8.381,-8.3884,-8.3929,-8.3977,-8.4045,-8.4146,-8.4208,-8.433,-8.4427,-8.4521,-8.4564,-8.4564,-8.4566,-8.4588,-8.4582,-8.4567,-8.4577,-8.4355,-8.456,-8.4558,-8.4557,-8.4556,-8.4556,-8.3568,-8.364,-8.3721,-8.3818,-8.3879,-8.3949,-8.4022,-8.407,-8.4155,-8.426,-8.4275,-8.4384,-8.4459,-8.4586,-8.4634,-8.4718,-8.4698,-8.473,-8.4738,-8.4745,-8.4751,-8.4554,-8.4735,-8.4735,-8.4735,-8.4734,-8.4734,0,-8.3728,-8.3782,-8.3871,-8.3977,-8.4054,-8.405,-8.4133,-8.4196,-8.4293,-8.4365,-8.4445,-8.4562,-8.4656,-8.4717,-8.4812,-8.4868,-8.487,-8.4891,-8.4887,-8.4898,-8.4762,-8.4734,-8.4889,-8.4888,-8.4888,-8.4888,-8.4888,-8.4888,-8.382,-8.3942,-8.3973,-8.4125,-8.4177,-8.4286,-8.4334,-8.4399,-8.4457,-8.4589,-8.4669,-8.4709,-8.4777,-8.4878,-8.4964,-8.4979,-8.5014,-8.5038,-8.5051,-8.4923,-8.4907,-8.4892,-8.4865,-8.5045,-8.5045,-8.518,-8.5181,-8.5182]}]]